Retour au catalogue

CZ-6A DEB

ActifSSO
NORAD 56259·DEBRIS·🇨🇳 China

Lancé Nov 11, 2022 depuis Taiyuan Satellite Launch Center

Loading…

Prochains Passages (prochaines 24 heures)

TLE

FraisSource: Space-Track

Époque: Sep 14, 2026, 06:27 UTC

1 56259U 22151ACB 26257.26895997  .00001721  00000-0  85388-3 0  9991
2 56259  98.8324 260.0662 0049512  78.7945 281.8790 14.17852695185722

Suivez CZ-6A DEB en temps réel avec AllMySat

Download on the App Store